Theta_e
326 326 326 324 323 322 322 322 322 322 321 321 321 321 321 321 322 322 322 322 321 320 321 322 323 325 321 312 311 325 358 351 334 327 322 324 324 324 318 321 323 316 319 320 322 322 327
327 327 326 324 323 322 322 322 322 322 321 321 321 320 321 322 322 321 321 321 321 320 321 322 324 325 318 303 318 323 332 330 328 326 324 326 326 328 321 321 320 323 319 319 321 321 327
327 327 327 326 323 323 322 322 323 322 322 322 322 321 322 322 323 322 321 321 321 321 322 322 325 324 316 312 320 320 322 318 321 324 325 329 331 324 323 318 327 323 314 317 318 319 323
327 327 327 326 325 325 324 324 323 323 322 322 322 321 322 322 322 321 320 320 320 322 324 326 326 319 310 320 321 319 316 315 321 322 322 325 325 321 319 322 322 319 314 308 319 320 326
328 327 327 326 325 324 324 323 323 322 322 321 321 321 321 321 320 319 318 319 321 324 326 327 316 313 309 324 313 316 316 313 316 319 319 328 322 316 317 313 311 314 306 312 316 322 321
327 327 326 326 325 324 323 323 322 322 321 321 320 320 320 320 319 318 317 319 324 322 324 323 321 308 314 313 313 315 315 315 312 316 316 316 314 309 310 308 302 308 309 312 312 317 318
326 326 325 323 324 324 323 323 322 322 321 321 320 319 319 319 318 317 315 316 314 309 311 310 309 310 312 318 317 311 313 310 309 310 305 312 307 305 310 314 316 316 311 312 315 320 316
325 325 324 324 324 323 323 322 322 321 321 321 320 319 319 318 318 317 314 314 318 314 307 316 317 317 318 315 307 311 310 305 305 302 308 306 305 312 316 317 316 315 311 311 316 320 314
325 324 324 323 323 323 322 322 321 320 320 319 319 318 318 317 317 317 318 320 325 320 306 311 315 315 315 312 306 307 310 307 303 302 305 303 308 316 314 313 313 312 310 312 311 316 316
325 324 323 323 322 322 322 321 320 320 319 319 319 318 317 315 316 318 317 324 322 321 300 305 308 312 315 312 305 314 312 307 305 302 306 304 312 312 312 310 313 304 317 317 314 310 303
324 324 323 323 322 322 321 320 320 319 319 318 318 317 315 315 315 315 320 326 325 316 291 312 308 317 313 307 307 308 314 308 302 304 305 304 308 308 308 311 315 311 318 314 314 308 301
323 323 323 323 323 322 321 320 319 318 318 318 317 316 316 318 316 319 323 324 321 301 294 307 310 306 305 307 309 309 308 310 309 305 306 307 313 310 310 314 316 320 314 312 311 304 296
322 322 322 322 321 321 320 319 319 318 317 316 315 313 314 319 314 323 322 317 300 296 310 307 306 309 305 303 305 306 304 301 298 293 296 304 308 311 313 306 311 311 306 300 298 295 296
319 319 320 321 320 319 319 319 318 317 316 315 312 311 316 320 321 319 318 308 297 306 304 309 309 308 302 304 303 304 303 299 302 300 298 297 297 306 311 307 305 308 304 298 293 295 296
317 317 318 318 318 318 318 318 318 317 316 314 311 320 321 324 323 322 311 300 301 306 310 309 309 304 303 305 304 302 300 300 302 303 296 297 300 310 311 312 310 306 301 306 302 301 299
314 315 316 317 317 317 317 317 317 317 316 313 313 316 319 326 327 319 307 299 305 311 311 311 304 306 301 303 302 299 300 305 304 306 305 302 296 307 309 311 312 307 312 300 302 295 295
315 314 314 315 316 317 317 317 317 317 315 313 314 316 324 326 326 313 302 303 308 312 313 309 307 305 305 305 303 300 301 306 308 306 307 303 298 302 308 305 304 305 304 306 304 302 296
316 316 316 315 314 315 316 317 317 315 312 315 317 310 326 327 311 311 305 307 305 310 313 311 310 308 306 307 304 303 302 305 310 308 302 305 299 295 301 309 314 309 306 308 299 298 301
315 315 316 316 315 313 316 317 315 314 314 314 313 317 327 325 307 306 309 309 310 310 310 310 308 309 309 305 302 307 307 310 309 307 302 302 296 292 297 303 310 307 307 305 306 305 300
315 316 316 316 315 314 315 316 314 314 315 314 314 311 318 319 317 311 308 309 310 315 312 313 310 310 307 306 308 307 309 314 313 308 323 310 297 295 293 303 310 306 309 310 302 299 303
315 315 316 316 316 316 315 315 315 315 316 314 315 313 317 312 312 311 310 310 310 309 314 312 308 309 307 303 307 309 315 315 319 322 307 302 295 297 305 308 310 310 309 310 307 307 302
315 316 316 316 316 316 316 315 316 316 315 313 311 313 317 313 314 315 312 307 308 309 311 308 306 309 308 304 314 311 314 311 312 315 301 303 297 299 298 309 310 309 309 310 310 311 310
314 315 316 316 317 317 316 316 316 316 316 316 321 321 316 310 312 310 311 312 312 315 314 316 311 308 308 314 317 320 320 316 315 312 310 306 298 296 294 305 307 302 307 310 309 311 312
313 314 315 316 316 317 317 316 316 316 316 316 317 318 312 308 311 310 312 314 314 316 315 318 318 316 322 324 320 318 316 317 318 317 316 312 301 299 298 303 295 306 313 313 311 313 312
313 314 315 316 317 317 317 316 315 316 317 316 318 316 313 307 312 313 312 313 317 317 316 318 319 321 323 321 314 310 310 312 310 312 312 314 302 298 299 299 305 309 313 312 309 308 317
313 314 315 316 317 317 317 316 316 316 316 317 318 322 316 309 308 313 311 316 312 313 315 318 324 325 319 313 311 304 301 305 304 308 317 314 309 302 299 299 297 308 317 319 317 304 319
313 313 315 315 316 316 316 315 315 316 316 317 317 321 317 309 313 314 311 311 317 314 312 317 315 319 323 310 308 306 304 308 302 303 307 306 305 300 301 299 308 317 320 321 304 312 326
312 313 314 315 315 315 316 315 315 318 320 317 317 321 319 311 312 315 315 313 314 314 310 315 315 318 318 313 310 307 307 309 306 310 306 304 305 302 300 298 304 321 321 313 316 323 333
312 313 314 314 315 315 316 315 315 317 319 317 313 321 321 314 311 317 317 319 318 318 314 316 316 316 321 316 311 311 306 309 304 302 311 307 310 308 310 309 317 319 318 323 323 318 320
Wind_Speed
11 11 12 14 14 14 15 16 17 17 18 19 20 20 21 21 22 22 21 19 21 20 19 16 15 14 7 4 12 5 6 7 4 4 8 9 13 13 6 9 12 4 5 4 8 10 22
11 11 11 13 14 15 15 16 16 17 17 19 20 20 21 19 21 22 22 21 21 20 17 14 12 12 2 6 10 10 10 8 9 8 9 9 11 16 10 7 6 1 7 9 2 8 24
11 11 11 11 14 15 15 14 12 13 14 15 15 17 19 19 19 21 22 22 21 19 15 11 8 5 5 17 6 6 10 6 7 10 11 13 14 10 10 11 10 1 4 9 6 5 8
11 11 11 11 11 12 13 13 13 14 15 15 16 17 19 20 20 22 22 22 22 18 12 9 4 4 9 8 13 18 10 6 9 11 9 10 9 9 4 10 13 10 5 5 2 4 4
10 10 11 11 12 12 13 13 14 15 15 16 17 18 20 21 21 22 23 28 21 16 9 6 3 4 10 8 6 11 9 8 8 9 9 11 7 5 10 7 8 5 3 6 7 5 7
11 10 10 11 12 13 13 13 14 15 16 17 18 19 21 22 23 22 25 26 6 6 5 8 8 6 8 9 7 9 9 6 7 8 9 8 4 3 7 4 6 5 6 3 5 8 4
10 11 12 15 11 12 13 13 14 15 17 18 19 20 22 23 24 19 15 6 1 1 5 9 7 7 12 7 7 7 9 9 8 8 7 9 4 7 14 15 6 3 0 7 11 10 1
10 10 11 12 11 12 13 13 14 15 17 18 19 20 23 25 27 23 4 4 9 6 10 11 19 20 20 11 3 7 3 9 8 9 9 7 11 12 17 16 3 6 13 18 7 8 4
10 10 10 11 11 12 13 13 14 16 17 18 19 20 23 27 31 8 6 13 14 10 6 14 18 20 14 8 7 11 11 8 7 9 13 10 10 16 18 17 12 10 14 7 7 3 5
10 10 10 11 11 11 12 13 14 16 16 18 19 19 22 28 6 9 8 11 7 6 4 9 8 13 16 10 11 15 9 11 6 11 13 9 16 16 16 12 12 3 12 17 6 4 4
11 10 10 11 11 11 11 12 14 15 16 17 18 17 22 10 9 6 8 17 14 4 4 8 6 7 8 10 4 6 11 9 11 11 8 15 14 13 15 15 5 7 15 8 7 6 3
11 11 11 12 13 12 12 13 14 15 16 18 18 18 15 10 4 13 17 18 9 2 8 5 7 8 6 8 14 5 8 7 8 11 12 12 14 12 15 13 10 16 5 6 10 4 6
13 11 10 12 12 12 13 14 16 15 15 18 20 19 10 6 8 5 14 6 1 5 9 9 7 11 10 9 10 9 10 7 7 6 11 13 15 14 9 8 11 5 7 2 6 4 4
12 13 13 12 12 12 14 15 16 16 16 19 21 26 10 10 10 12 4 4 5 11 10 5 4 13 9 10 10 13 10 8 9 10 6 7 9 8 9 11 7 8 8 7 7 3 4
11 12 13 13 13 13 14 15 16 16 17 19 23 5 7 7 13 7 3 5 6 5 17 16 6 4 8 10 10 10 8 9 10 13 11 7 11 10 14 13 8 11 3 5 7 2 5
12 12 12 12 12 13 14 15 16 17 19 14 8 6 8 11 14 6 3 6 9 14 20 19 6 6 3 8 11 10 10 12 10 13 11 14 8 10 13 12 7 8 4 5 4 6 3
12 13 13 12 12 11 14 15 16 17 20 24 4 5 4 11 11 3 6 7 12 20 19 8 8 12 14 12 10 9 10 11 13 13 14 12 5 20 6 8 9 5 3 4 2 8 5
11 11 11 12 13 11 13 14 14 16 21 9 5 4 8 7 4 4 9 8 9 22 23 10 5 9 11 14 9 8 11 9 9 14 12 11 4 6 11 8 15 10 12 13 7 9 7
11 11 12 12 11 14 11 12 13 13 12 6 5 6 6 6 5 9 12 18 20 21 21 16 6 7 12 10 9 8 6 8 10 8 7 6 4 5 12 12 7 12 8 10 9 7 6
10 11 12 12 11 12 9 11 12 11 9 5 5 4 5 4 8 13 13 15 15 19 20 12 8 9 10 11 9 7 10 10 9 6 10 8 2 6 7 6 4 6 7 15 6 4 3
11 11 13 12 11 11 10 10 11 11 9 3 4 5 3 3 4 10 13 15 20 20 14 7 9 13 10 7 9 6 9 9 14 4 6 6 3 6 1 6 4 10 21 19 22 6 7
12 13 12 11 11 11 9 8 10 11 10 3 4 5 7 11 12 13 12 15 18 19 16 6 9 13 12 5 5 3 3 2 4 11 3 6 6 5 4 8 10 14 16 20 25 8 9
12 13 13 11 11 11 9 7 9 10 7 4 5 6 6 7 8 10 10 15 16 19 16 17 11 14 12 8 7 9 11 8 6 2 4 6 4 3 8 10 9 9 7 16 2 12 16
12 13 14 12 12 11 9 6 8 7 5 4 4 6 4 7 10 11 16 17 18 17 12 16 8 7 4 2 6 3 4 12 10 13 10 15 7 5 3 5 2 8 14 8 14 8 13
11 12 13 12 11 10 9 6 7 7 6 3 6 3 4 7 10 13 16 16 14 12 16 13 16 4 8 8 3 1 4 8 10 16 22 9 4 3 7 3 7 7 8 7 7 4 11
10 11 11 11 11 10 8 6 6 7 7 3 5 2 4 5 7 12 14 4 3 5 10 11 22 17 6 6 2 4 5 1 8 15 21 17 10 7 3 8 6 8 5 15 7 4 9
10 11 10 10 10 10 8 6 5 7 9 3 5 4 3 5 11 9 8 8 3 5 3 12 16 9 12 6 2 5 2 2 2 1 9 12 11 11 8 6 4 1 14 13 6 1 8
9 11 9 9 9 9 8 5 5 8 6 3 5 4 3 4 13 15 18 14 9 5 4 6 9 7 6 8 4 2 2 0 4 3 4 3 7 5 6 7 3 5 5 9 7 7 6
9 10 8 8 8 8 7 5 5 5 4 4 3 4 5 4 8 18 19 19 18 14 8 3 4 7 5 4 3 3 2 1 3 4 4 3 4 7 5 3 2 4 12 11 14 7 11
Wind_Direction
4 7 9 8 5 4 2 360 357 354 352 350 347 347 345 342 338 333 329 324 329 319 314 314 321 325 337 236 249 168 183 217 213 242 249 263 284 291 340 314 307 249 330 219 178 155 137
357 359 2 3 359 359 358 356 354 352 350 347 343 339 338 335 336 331 325 321 320 316 311 306 313 316 248 253 249 184 196 190 229 213 260 255 264 281 289 252 310 88 325 301 107 166 115
350 350 351 351 354 352 350 346 341 337 335 334 334 334 325 325 325 326 321 315 316 314 308 301 308 292 262 241 264 325 191 232 256 241 244 252 263 298 300 321 313 342 257 284 250 172 140
343 343 344 343 338 336 336 337 334 333 334 331 329 325 325 324 320 317 316 314 309 303 299 297 281 275 253 260 241 272 297 272 252 268 269 286 305 304 275 301 300 278 261 271 241 158 154
335 336 337 338 336 334 333 333 333 332 331 329 329 326 322 321 319 318 316 309 300 283 272 265 225 212 266 263 203 229 242 233 255 266 290 281 295 308 323 296 305 288 275 330 335 326 174
334 335 333 330 334 332 331 330 330 330 330 330 329 326 322 320 320 322 320 302 288 301 222 211 259 301 262 242 203 220 231 252 254 258 244 253 271 275 288 279 258 293 339 347 280 283 177
330 329 324 332 331 329 328 327 328 328 328 327 327 324 322 319 318 325 339 341 357 63 265 217 197 242 297 218 261 185 201 221 245 261 246 234 204 225 252 252 239 270 172 279 273 294 65
326 326 330 331 326 326 326 326 326 327 327 326 325 324 322 319 315 314 279 259 290 294 297 242 235 249 267 285 206 206 214 186 205 234 250 254 222 234 249 256 213 7 280 270 255 284 165
317 319 322 321 320 323 325 325 326 326 325 325 325 324 326 323 314 298 256 263 286 295 284 283 235 225 232 240 230 261 171 229 198 227 241 218 234 225 244 260 246 186 244 279 191 246 257
317 311 314 318 318 319 320 320 321 323 323 324 323 325 333 333 327 338 284 324 319 339 296 267 182 221 210 226 252 230 213 179 229 213 239 242 239 245 234 245 259 203 287 299 229 156 241
326 322 319 313 314 317 318 318 319 320 321 321 320 322 330 321 297 288 298 330 314 329 301 166 141 180 170 177 266 192 219 197 207 234 191 248 242 242 251 241 135 219 244 281 323 283 274
320 321 326 325 321 313 315 315 315 315 317 316 313 310 331 317 216 250 291 288 300 267 246 162 138 168 196 199 235 244 202 191 206 242 250 228 245 241 243 256 194 161 234 316 336 289 53
334 319 323 324 325 322 316 314 311 311 314 313 309 303 292 282 242 319 330 310 215 237 311 154 172 166 188 201 235 243 191 202 197 208 254 266 245 255 236 267 283 221 139 56 303 16 210
331 338 343 332 328 328 324 319 317 317 316 313 312 303 251 214 220 255 278 313 245 262 251 305 143 160 171 207 208 248 172 205 214 240 216 235 279 246 253 207 226 241 199 159 214 124 254
330 331 328 329 328 325 324 322 320 318 316 317 312 287 259 225 211 238 268 240 232 237 338 333 153 217 214 189 201 200 235 197 208 217 229 227 240 236 228 252 189 268 260 218 104 184 78
327 323 320 320 320 323 323 324 325 323 318 324 320 285 255 235 160 192 225 254 279 312 310 311 345 304 287 222 184 178 218 207 213 208 217 261 296 259 212 224 220 190 189 6 20 163 178
318 323 327 321 316 320 324 324 327 327 321 318 254 275 208 169 158 198 230 243 277 275 277 308 310 311 313 306 191 198 231 228 200 221 204 232 208 277 294 197 190 248 158 187 233 146 161
314 313 312 314 327 324 325 326 333 334 329 337 296 271 145 148 179 215 241 251 262 280 284 267 271 286 291 310 317 266 207 233 215 200 193 222 204 265 250 241 192 199 196 201 145 269 227
317 317 316 315 316 327 323 327 332 340 355 325 284 280 249 179 236 236 249 244 253 271 280 283 244 258 280 285 314 311 319 233 261 195 184 224 254 268 308 324 223 199 233 209 191 203 273
314 315 314 312 314 317 317 322 328 334 338 322 277 274 203 189 243 267 290 293 268 255 258 281 286 282 282 292 289 300 309 308 296 231 181 94 289 181 214 231 64 305 308 320 245 256 121
315 319 311 311 313 310 314 318 325 331 331 305 245 269 349 256 251 251 251 274 289 293 277 206 278 282 268 291 309 13 354 335 323 303 135 118 237 276 27 133 175 183 264 286 293 169 129
320 314 309 313 309 309 307 315 325 336 326 249 293 345 341 300 286 287 296 236 266 289 298 220 207 256 279 288 133 274 342 304 283 354 303 160 232 262 216 231 207 217 257 274 280 106 97
310 314 314 309 307 307 302 308 321 341 342 298 349 335 299 294 300 308 305 333 321 328 287 314 224 220 249 143 166 212 195 248 236 91 311 322 175 191 262 248 204 245 229 255 340 118 142
304 309 313 309 299 302 300 287 309 332 351 302 290 306 289 289 307 303 330 322 324 333 307 321 340 36 6 91 166 213 238 260 277 283 243 276 229 155 181 34 268 256 252 286 289 163 182
298 305 309 307 302 296 295 271 303 311 328 284 295 308 309 298 312 306 346 337 335 341 335 324 326 357 79 292 271 308 288 326 358 337 323 267 193 205 127 178 291 323 282 255 189 289 89
295 304 308 305 305 307 296 273 287 297 307 278 278 281 277 299 241 0 322 7 332 334 339 325 349 334 184 262 354 329 52 306 331 345 308 319 266 174 172 144 202 252 293 344 347 36 126
295 301 300 300 301 309 300 280 289 288 289 260 295 310 286 278 276 320 311 336 280 281 266 324 343 319 342 238 56 45 69 318 219 92 316 337 277 193 214 211 130 177 294 311 83 10 335
297 299 293 295 297 305 295 269 284 290 291 226 292 302 274 271 288 282 294 300 320 326 15 321 310 3 337 42 81 101 107 180 305 242 126 270 290 271 212 201 240 28 21 92 248 318 294
293 298 287 285 284 299 292 255 270 302 310 219 277 326 324 252 283 312 283 269 262 265 296 315 227 285 86 38 358 143 130 183 104 303 284 237 52 306 302 147 35 337 129 150 84 53 258